QTR133 OOMS-OMDB

Flight info

Callsign QTR133
Flight time 0h 36m
Altitude 20000
Route MCT T508 SOLUD P574 IMPED
Aircraft A20N/M-SDE2E3FGHIRWXY/LB1

Departure

Time 2026-04-20 12:54
Airport Muscat International Airport (OOMS)

Arrival

Time 2026-04-20 13:30
Airport Dubai International Airport (OMDB)
Time Latitude Longitude Altitude Speed Heading
2026-04-20 12:27 23.59996 58.28425 34 ft 0 kts 355°
2026-04-20 12:40 23.59983 58.28427 34 ft 2 kts 355°
2026-04-20 12:40 23.59966 58.28428 32 ft 2 kts 355°
2026-04-20 12:40 23.59950 58.28430 32 ft 2 kts 355°
2026-04-20 12:40 23.59933 58.28431 32 ft 2 kts 355°
2026-04-20 12:41 23.59917 58.28433 30 ft 2 kts 355°
2026-04-20 12:41 23.59900 58.28434 31 ft 2 kts 354°
2026-04-20 12:41 23.59884 58.28436 32 ft 2 kts 344°
2026-04-20 12:41 23.59876 58.28449 31 ft 2 kts 262°
2026-04-20 12:42 23.59877 58.28460 34 ft 1 kts 264°
2026-04-20 12:44 23.59875 58.28434 33 ft 10 kts 262°
2026-04-20 12:44 23.59867 58.28328 34 ft 17 kts 265°
2026-04-20 12:44 23.59857 58.28183 34 ft 21 kts 265°
2026-04-20 12:45 23.59843 58.28017 34 ft 21 kts 264°
2026-04-20 12:45 23.59801 58.27913 34 ft 16 kts 223°
2026-04-20 12:45 23.59699 58.27816 34 ft 24 kts 220°
2026-04-20 12:45 23.59565 58.27695 34 ft 22 kts 221°
2026-04-20 12:46 23.59534 58.27534 34 ft 23 kts 264°
2026-04-20 12:46 23.59517 58.27350 34 ft 26 kts 265°
2026-04-20 12:46 23.59503 58.27145 34 ft 28 kts 265°
2026-04-20 12:46 23.59484 58.26923 34 ft 30 kts 266°
2026-04-20 12:47 23.59469 58.26730 34 ft 12 kts 260°
2026-04-20 12:47 23.59442 58.26677 34 ft 11 kts 251°
2026-04-20 12:47 23.59458 58.26661 34 ft 2 kts 32°
2026-04-20 12:47 23.59467 58.26696 34 ft 9 kts 87°
2026-04-20 12:48 23.59473 58.26802 34 ft 16 kts 84°
2026-04-20 12:48 23.59485 58.26935 34 ft 19 kts 85°
2026-04-20 12:48 23.59498 58.27088 34 ft 21 kts 84°
2026-04-20 12:48 23.59511 58.27239 34 ft 18 kts 76°
2026-04-20 12:49 23.59595 58.27269 34 ft 13 kts
2026-04-20 12:49 23.59692 58.27265 34 ft 15 kts 346°
2026-04-20 12:49 23.59812 58.27255 34 ft 22 kts 357°
2026-04-20 12:49 23.59972 58.27240 34 ft 24 kts 356°
2026-04-20 12:50 23.60148 58.27225 32 ft 26 kts 356°
2026-04-20 12:50 23.60332 58.27207 34 ft 27 kts 356°
2026-04-20 12:50 23.60438 58.27149 34 ft 14 kts 274°
2026-04-20 12:50 23.60429 58.27032 34 ft 17 kts 268°
2026-04-20 12:51 23.60419 58.26889 34 ft 21 kts 265°
2026-04-20 12:51 23.60406 58.26722 34 ft 24 kts 264°
2026-04-20 12:51 23.60394 58.26588 34 ft 0 kts 264°
2026-04-20 12:51 23.60391 58.26555 34 ft 9 kts 264°
2026-04-20 12:52 23.60429 58.26499 34 ft 11 kts 348°
2026-04-20 12:52 23.60515 58.26492 34 ft 14 kts 356°
2026-04-20 12:52 23.60611 58.26480 34 ft 1 kts 354°
2026-04-20 12:52 23.60625 58.26479 34 ft 5 kts 354°
2026-04-20 12:53 23.60647 58.26493 34 ft 3 kts 81°
2026-04-20 12:53 23.60648 58.26503 34 ft 2 kts 81°
2026-04-20 12:53 23.60653 58.26549 35 ft 18 kts 85°
2026-04-20 12:53 23.60686 58.26937 36 ft 85 kts 85°
2026-04-20 12:54 23.60753 58.27782 33 ft 139 kts 85°
2026-04-20 12:54 23.60851 58.28946 320 ft 157 kts 83°
2026-04-20 12:54 23.60932 58.30148 1003 ft 157 kts 83°
2026-04-20 12:54 23.60991 58.31346 1661 ft 161 kts 85°
2026-04-20 12:55 23.60964 58.32610 2151 ft 176 kts 100°
2026-04-20 12:55 23.60474 58.33915 2573 ft 200 kts 124°
2026-04-20 12:55 23.59365 58.34901 3079 ft 222 kts 155°
2026-04-20 12:55 23.57735 58.35135 3540 ft 250 kts 187°
2026-04-20 12:56 23.56066 58.34368 4078 ft 273 kts 218°
2026-04-20 12:56 23.54900 58.32770 4965 ft 277 kts 246°
2026-04-20 12:56 23.54558 58.30718 6094 ft 271 kts 274°
2026-04-20 12:56 23.55102 58.28787 7033 ft 275 kts 300°
2026-04-20 12:57 23.56348 58.27142 7901 ft 281 kts 307°
2026-04-20 12:57 23.57431 58.25396 8789 ft 283 kts 299°
2026-04-20 12:57 23.58397 58.23512 9717 ft 286 kts 297°
2026-04-20 12:57 23.59372 58.21594 10437 ft 296 kts 298°
2026-04-20 12:58 23.60444 58.19574 10764 ft 320 kts 300°
2026-04-20 12:58 23.61633 58.17430 11115 ft 339 kts 301°
2026-04-20 12:58 23.62882 58.15225 11907 ft 343 kts 302°
2026-04-20 12:58 23.64147 58.13005 12728 ft 346 kts 302°
2026-04-20 12:59 23.65428 58.10758 13514 ft 351 kts 302°
2026-04-20 12:59 23.66726 58.08481 14227 ft 355 kts 302°
2026-04-20 12:59 23.68037 58.06181 14959 ft 359 kts 302°
2026-04-20 12:59 23.69362 58.03856 15657 ft 363 kts 302°
2026-04-20 13:00 23.70702 58.01504 16342 ft 366 kts 302°
2026-04-20 13:00 23.72053 57.99132 17037 ft 370 kts 302°
2026-04-20 13:00 23.73420 57.96729 17676 ft 374 kts 302°
2026-04-20 13:00 23.74798 57.94308 18296 ft 378 kts 302°
2026-04-20 13:01 23.76209 57.91826 18885 ft 381 kts 302°
2026-04-20 13:01 23.77610 57.89361 19450 ft 384 kts 302°
2026-04-20 13:01 23.79023 57.86873 19721 ft 387 kts 302°
2026-04-20 13:01 23.80467 57.84330 19809 ft 402 kts 301°
2026-04-20 13:02 23.81973 57.81674 19819 ft 420 kts 302°
2026-04-20 13:02 23.83545 57.78902 19819 ft 436 kts 302°
2026-04-20 13:02 23.85148 57.76075 19820 ft 439 kts 302°
2026-04-20 13:02 23.86756 57.73237 19814 ft 438 kts 301°
2026-04-20 13:03 23.88354 57.70415 19820 ft 438 kts 301°
2026-04-20 13:03 23.89941 57.67610 19824 ft 438 kts 301°
2026-04-20 13:03 23.91538 57.64785 19824 ft 437 kts 301°
2026-04-20 13:03 23.93158 57.61918 19824 ft 437 kts 301°
2026-04-20 13:04 23.94754 57.59091 19818 ft 437 kts 301°
2026-04-20 13:04 23.96352 57.56262 19817 ft 437 kts 301°
2026-04-20 13:04 23.97945 57.53439 19821 ft 437 kts 301°
2026-04-20 13:04 23.99527 57.50645 19818 ft 437 kts 303°
2026-04-20 13:05 24.01319 57.47966 19819 ft 437 kts 308°
2026-04-20 13:05 24.03202 57.45359 19816 ft 437 kts 308°
2026-04-20 13:05 24.05084 57.42737 19817 ft 437 kts 308°
2026-04-20 13:05 24.06958 57.40117 19817 ft 437 kts 308°
2026-04-20 13:06 24.08833 57.37493 19819 ft 437 kts 307°
2026-04-20 13:06 24.10710 57.34865 19821 ft 437 kts 307°
2026-04-20 13:06 24.12578 57.32248 19820 ft 437 kts 307°
2026-04-20 13:06 24.14451 57.29625 19816 ft 436 kts 307°
2026-04-20 13:07 24.16321 57.27003 19819 ft 436 kts 307°
2026-04-20 13:07 24.18161 57.24422 19817 ft 436 kts 307°
2026-04-20 13:07 24.20050 57.21771 19816 ft 436 kts 307°
2026-04-20 13:07 24.21892 57.19186 19815 ft 436 kts 307°
2026-04-20 13:08 24.23762 57.16560 19816 ft 436 kts 307°
2026-04-20 13:08 24.25630 57.13933 19816 ft 436 kts 307°
2026-04-20 13:08 24.27496 57.11311 19815 ft 436 kts 307°
2026-04-20 13:08 24.29357 57.08691 19811 ft 436 kts 307°
2026-04-20 13:09 24.31224 57.06063 19811 ft 436 kts 307°
2026-04-20 13:09 24.33087 57.03440 19809 ft 436 kts 307°
2026-04-20 13:09 24.34948 57.00817 19809 ft 436 kts 307°
2026-04-20 13:09 24.36808 56.98195 19805 ft 436 kts 307°
2026-04-20 13:10 24.38670 56.95569 19802 ft 435 kts 307°
2026-04-20 13:10 24.40525 56.92950 19798 ft 435 kts 307°
2026-04-20 13:10 24.42388 56.90319 19794 ft 435 kts 307°
2026-04-20 13:10 24.44243 56.87699 19792 ft 435 kts 307°
2026-04-20 13:11 24.46105 56.85065 19791 ft 435 kts 307°
2026-04-20 13:11 24.47958 56.82444 19786 ft 435 kts 307°
2026-04-20 13:11 24.49813 56.79820 19787 ft 435 kts 307°
2026-04-20 13:11 24.51668 56.77193 19786 ft 435 kts 307°
2026-04-20 13:12 24.53523 56.74565 19787 ft 435 kts 307°
2026-04-20 13:12 24.55352 56.71976 19785 ft 434 kts 307°
2026-04-20 13:12 24.57207 56.69352 19788 ft 434 kts 307°
2026-04-20 13:12 24.59058 56.66735 19790 ft 434 kts 307°
2026-04-20 13:13 24.60907 56.64117 19791 ft 434 kts 307°
2026-04-20 13:13 24.62759 56.61496 19794 ft 434 kts 307°
2026-04-20 13:13 24.64608 56.58876 19796 ft 433 kts 307°
2026-04-20 13:13 24.66458 56.56252 19799 ft 433 kts 307°
2026-04-20 13:14 24.68301 56.53638 19804 ft 433 kts 307°
2026-04-20 13:14 24.70146 56.51019 19807 ft 433 kts 307°
2026-04-20 13:14 24.71986 56.48405 19809 ft 433 kts 307°
2026-04-20 13:14 24.73826 56.45791 19811 ft 432 kts 307°
2026-04-20 13:15 24.75663 56.43179 19813 ft 432 kts 307°
2026-04-20 13:15 24.77495 56.40573 19678 ft 428 kts 307°
2026-04-20 13:15 24.79314 56.37983 19161 ft 426 kts 307°
2026-04-20 13:15 24.81105 56.35403 18481 ft 423 kts 306°
2026-04-20 13:16 24.82854 56.32809 17718 ft 419 kts 306°
2026-04-20 13:16 24.84574 56.30239 16956 ft 414 kts 306°
2026-04-20 13:16 24.86270 56.27706 16183 ft 409 kts 306°
2026-04-20 13:16 24.87913 56.25162 15428 ft 404 kts 302°
2026-04-20 13:17 24.89306 56.22493 14705 ft 400 kts 299°
2026-04-20 13:17 24.90660 56.19835 13986 ft 395 kts 300°
2026-04-20 13:17 24.91989 56.17249 13219 ft 391 kts 300°
2026-04-20 13:17 24.93331 56.14642 12412 ft 388 kts 300°
2026-04-20 13:18 24.94658 56.12065 11618 ft 386 kts 300°
2026-04-20 13:18 24.95977 56.09500 10849 ft 383 kts 300°
2026-04-20 13:18 24.97364 56.07005 10106 ft 381 kts 306°
2026-04-20 13:18 24.99032 56.04750 9401 ft 377 kts 313°
2026-04-20 13:19 25.00793 56.02627 8680 ft 374 kts 313°
2026-04-20 13:19 25.02534 56.00506 7983 ft 372 kts 312°
2026-04-20 13:19 25.04269 55.98381 7485 ft 374 kts 312°
2026-04-20 13:19 25.05981 55.96281 7304 ft 363 kts 312°
2026-04-20 13:20 25.07639 55.94248 7154 ft 347 kts 312°
2026-04-20 13:20 25.09218 55.92311 7004 ft 332 kts 312°
2026-04-20 13:20 25.10727 55.90460 6879 ft 316 kts 312°
2026-04-20 13:20 25.12159 55.88702 6801 ft 300 kts 312°
2026-04-20 13:21 25.13523 55.87027 6719 ft 286 kts 312°
2026-04-20 13:21 25.14831 55.85420 6481 ft 279 kts 312°
2026-04-20 13:21 25.16038 55.83743 6106 ft 278 kts 303°
2026-04-20 13:22 25.17048 55.81912 5723 ft 277 kts 301°
2026-04-20 13:22 25.17716 55.80679 5462 ft 276 kts 298°
2026-04-20 13:22 25.18220 55.78463 5043 ft 276 kts 269°
2026-04-20 13:22 25.17762 55.76427 4646 ft 276 kts 242°
2026-04-20 13:23 25.16743 55.74640 4275 ft 275 kts 236°
2026-04-20 13:23 25.15662 55.72921 3969 ft 270 kts 236°
2026-04-20 13:23 25.14602 55.71205 3866 ft 269 kts 237°
2026-04-20 13:23 25.13604 55.69525 3842 ft 255 kts 238°
2026-04-20 13:24 25.12676 55.67925 3841 ft 240 kts 238°
2026-04-20 13:24 25.11798 55.66387 3841 ft 235 kts 239°
2026-04-20 13:24 25.11058 55.64839 3838 ft 220 kts 255°
2026-04-20 13:24 25.10974 55.63179 3851 ft 221 kts 281°
2026-04-20 13:25 25.11464 55.61569 3847 ft 221 kts 296°
2026-04-20 13:25 25.12196 55.60085 3849 ft 221 kts 301°
2026-04-20 13:25 25.13014 55.58612 3798 ft 227 kts 302°
2026-04-20 13:25 25.13827 55.57141 3563 ft 229 kts 302°
2026-04-20 13:26 25.14658 55.55640 3260 ft 227 kts 302°
2026-04-20 13:26 25.15468 55.54176 2976 ft 219 kts 301°
2026-04-20 13:26 25.16247 55.52773 2706 ft 212 kts 301°
2026-04-20 13:26 25.17006 55.51397 2420 ft 206 kts 301°
2026-04-20 13:27 25.17742 55.50071 2172 ft 199 kts 301°
2026-04-20 13:27 25.18438 55.48816 1957 ft 185 kts 302°
2026-04-20 13:27 25.19078 55.47656 1722 ft 169 kts 302°
2026-04-20 13:27 25.19663 55.46598 1512 ft 153 kts 301°
2026-04-20 13:28 25.20192 55.45644 1329 ft 139 kts 301°
2026-04-20 13:28 25.20678 55.44761 1136 ft 128 kts 301°
2026-04-20 13:28 25.20979 55.44220 1027 ft 123 kts 301°
2026-04-20 13:28 25.21441 55.43395 890 ft 128 kts 299°
2026-04-20 13:29 25.21888 55.42573 717 ft 124 kts 301°
2026-04-20 13:29 25.22342 55.41766 565 ft 124 kts 301°
2026-04-20 13:29 25.22820 55.40920 461 ft 136 kts 300°
2026-04-20 13:29 25.23305 55.40031 238 ft 133 kts 301°
2026-04-20 13:30 25.23763 55.39193 71 ft 121 kts 300°
2026-04-20 13:30 25.24125 55.38536 53 ft 72 kts 302°
2026-04-20 13:30 25.24281 55.38254 49 ft 12 kts 301°
2026-04-20 13:30 25.24318 55.38152 47 ft 16 kts 262°
2026-04-20 13:31 25.24270 55.38095 45 ft 9 kts 216°
2026-04-20 13:31 25.24240 55.38071 48 ft 0 kts 219°
2026-04-20 13:32 25.24239 55.38069 48 ft 2 kts 219°
2026-04-20 13:32 25.24210 55.38035 49 ft 7 kts 241°
2026-04-20 13:32 25.24210 55.38011 47 ft 0 kts 278°
2026-04-20 13:33 25.24210 55.38010 47 ft 1 kts 282°
2026-04-20 13:33 25.24229 55.37978 47 ft 8 kts 312°
2026-04-20 13:34 25.24270 55.37910 45 ft 13 kts 301°
2026-04-20 13:34 25.24306 55.37827 42 ft 12 kts 272°
2026-04-20 13:34 25.24288 55.37788 43 ft 5 kts 229°
2026-04-20 13:34 25.24271 55.37739 42 ft 9 kts 268°
2026-04-20 13:35 25.24247 55.37664 41 ft 12 kts 248°
2026-04-20 13:35 25.24226 55.37609 41 ft 1 kts 247°
2026-04-20 13:35 25.24220 55.37590 41 ft 3 kts 252°
2026-04-20 13:35 25.24217 55.37580 41 ft 0 kts 251°